Location: Aciu?a
(46.2833°N, 22.4500°E)
Time: 06:08:35
(UTC+00:00)

Cosmos 1844 Rocket - Pass Details

Date: 25 October 2021
Orbit: 826 x 843 km, 71.0° (Epoch: 04 December)

Event Time Altitude Azimuth Distance (km) Brightness Sun altitude
Rises 17:04:47 0° 333° (NNW) 3,375 6.2 -17.6°
Reaches altitude 10° 17:07:13 10° 334° (NNW) 2,437 5.4 -18.0°
Maximum altitude 17:12:49 87° 65° (ENE) 834 2.6 -19.0°
Enters shadow 17:18:04 12° 154° (SSE) 2,301 4.7 -19.9°
